Location: *
(28.3744°N, 81.5492°W)
Time: 04:24:58
(UTC+00:00)

Cosmos 1515 Rocket - Pass Details

Date: 15 June 2025
Orbit: 600 x 624 km, 82.5° (Epoch: 11 July)

Event Time Altitude Azimuth Distance (km) Brightness Sun altitude
Exits shadow 02:25:46 34° 62° (ENE) 1,022 4.5 -22.4°
Drops below altitude 10° 02:28:56 10° 23° (NNE) 1,995 6.4 -22.9°
Sets 02:31:17 0° 16° (NNE) 2,906 7.4 -23.2°
